N1157K KSYR-

Flight info

Callsign N1157K
Flight time N/A
Altitude VFR
Route
Aircraft M20P/L-VGD/C

Departure

Time 2026-04-20 16:04
Airport Syracuse Hancock International Airport (KSYR)

Arrival

Time N/A
Airport -
Time Latitude Longitude Altitude Speed Heading
2026-04-20 15:57 43.10672 -76.11675 418 ft 0 kts 177°
2026-04-20 15:59 43.10671 -76.11675 418 ft 0 kts 176°
2026-04-20 16:00 43.10670 -76.11675 413 ft 1 kts 195°
2026-04-20 16:00 43.10678 -76.11683 417 ft 0 kts 18°
2026-04-20 16:00 43.10707 -76.11675 416 ft 12 kts
2026-04-20 16:00 43.10732 -76.11561 414 ft 16 kts 85°
2026-04-20 16:01 43.10738 -76.11366 416 ft 23 kts 89°
2026-04-20 16:01 43.10637 -76.11249 414 ft 21 kts 93°
2026-04-20 16:01 43.10635 -76.11034 414 ft 25 kts 90°
2026-04-20 16:01 43.10645 -76.10771 412 ft 30 kts 88°
2026-04-20 16:02 43.10652 -76.10597 411 ft 18 kts 81°
2026-04-20 16:02 43.10760 -76.10552 408 ft 13 kts 358°
2026-04-20 16:02 43.10774 -76.10553 408 ft 3 kts 358°
2026-04-20 16:02 43.10819 -76.10555 408 ft 9 kts 354°
2026-04-20 16:03 43.10837 -76.10558 408 ft 8 kts 352°
2026-04-20 16:03 43.10884 -76.10759 413 ft 47 kts 267°
2026-04-20 16:03 43.10856 -76.11420 481 ft 86 kts 264°
2026-04-20 16:03 43.10779 -76.12356 679 ft 114 kts 269°
2026-04-20 16:04 43.10692 -76.13563 902 ft 136 kts 269°
2026-04-20 16:04 43.10650 -76.14847 1168 ft 132 kts 284°
2026-04-20 16:04 43.11295 -76.15689 1239 ft 143 kts 347°
2026-04-20 16:04 43.12281 -76.15813 1483 ft 143 kts 353°
2026-04-20 16:05 43.13287 -76.15916 1625 ft 146 kts 352°
2026-04-20 16:05 43.14304 -76.15967 1780 ft 149 kts
2026-04-20 16:05 43.15269 -76.15304 1806 ft 161 kts 30°
2026-04-20 16:05 43.16203 -76.14438 1793 ft 162 kts 28°
2026-04-20 16:06 43.17164 -76.13645 1801 ft 161 kts 25°
2026-04-20 16:06 43.18137 -76.12882 1798 ft 161 kts 25°
2026-04-20 16:06 43.19114 -76.12114 1796 ft 164 kts 25°
2026-04-20 16:06 43.20100 -76.11338 1792 ft 163 kts 24°
2026-04-20 16:07 43.21083 -76.10569 1779 ft 161 kts 25°
2026-04-20 16:07 43.22039 -76.09820 1779 ft 159 kts 24°
2026-04-20 16:07 43.23007 -76.09057 1782 ft 158 kts 24°
2026-04-20 16:07 43.23941 -76.08324 1907 ft 157 kts 24°
2026-04-20 16:08 43.24907 -76.07569 2187 ft 162 kts 24°
2026-04-20 16:08 43.25899 -76.06791 2450 ft 166 kts 25°
2026-04-20 16:08 43.26906 -76.05997 2721 ft 168 kts 24°
2026-04-20 16:08 43.27945 -76.05183 2999 ft 171 kts 25°
2026-04-20 16:09 43.28980 -76.04366 3276 ft 173 kts 26°
2026-04-20 16:09 43.30031 -76.03533 3491 ft 178 kts 25°
2026-04-20 16:09 43.31142 -76.02665 3492 ft 188 kts 24°
2026-04-20 16:09 43.32281 -76.01766 3499 ft 195 kts 25°
2026-04-20 16:10 43.33464 -76.00831 3498 ft 197 kts 25°
2026-04-20 16:10 43.34661 -75.99886 3495 ft 199 kts 26°
2026-04-20 16:10 43.35867 -75.98931 3491 ft 201 kts 27°
2026-04-20 16:10 43.37080 -75.97974 3489 ft 202 kts 25°
2026-04-20 16:11 43.38296 -75.97014 3489 ft 201 kts 25°
2026-04-20 16:11 43.39513 -75.96052 3491 ft 202 kts 25°
2026-04-20 16:11 43.40731 -75.95093 3491 ft 201 kts 25°
2026-04-20 16:11 43.41945 -75.94128 3486 ft 199 kts 26°
2026-04-20 16:12 43.43116 -75.93197 3482 ft 192 kts 25°
2026-04-20 16:12 43.44260 -75.92295 3475 ft 186 kts 25°
2026-04-20 16:12 43.45390 -75.91403 3475 ft 192 kts 25°
2026-04-20 16:12 43.46565 -75.90473 3480 ft 197 kts 25°
2026-04-20 16:13 43.47757 -75.89527 3481 ft 199 kts 26°
2026-04-20 16:13 43.48959 -75.88571 3490 ft 200 kts 25°
2026-04-20 16:13 43.50167 -75.87611 3488 ft 201 kts 26°
2026-04-20 16:13 43.51365 -75.86661 3637 ft 194 kts 25°
2026-04-20 16:14 43.52498 -75.85758 3981 ft 184 kts 24°
2026-04-20 16:14 43.53588 -75.84890 4319 ft 178 kts 25°
2026-04-20 16:14 43.54652 -75.84049 4666 ft 175 kts 25°
2026-04-20 16:14 43.55703 -75.83214 5021 ft 173 kts 25°
2026-04-20 16:15 43.56742 -75.82387 5361 ft 172 kts 24°
2026-04-20 16:15 43.57814 -75.81539 5477 ft 185 kts 24°
2026-04-20 16:15 43.58966 -75.80623 5486 ft 196 kts 25°
2026-04-20 16:15 43.60165 -75.79664 5490 ft 202 kts 25°
2026-04-20 16:16 43.60974 -75.79018 5488 ft 204 kts 25°
2026-04-20 16:16 43.62211 -75.78030 5486 ft 206 kts 24°
2026-04-20 16:16 43.63456 -75.77039 5486 ft 207 kts 25°
2026-04-20 16:16 43.64704 -75.76041 5496 ft 207 kts 25°
2026-04-20 16:17 43.66362 -75.74719 5496 ft 208 kts 25°
2026-04-20 16:17 43.67211 -75.74042 5496 ft 209 kts 25°
2026-04-20 16:17 43.68472 -75.73033 5499 ft 210 kts 25°
2026-04-20 16:17 43.69736 -75.72021 5501 ft 210 kts 25°
2026-04-20 16:18 43.71002 -75.71006 5497 ft 210 kts 25°
2026-04-20 16:18 43.72270 -75.69992 5496 ft 211 kts 25°
2026-04-20 16:18 43.73542 -75.68973 5493 ft 211 kts 25°
2026-04-20 16:18 43.74811 -75.67956 5492 ft 211 kts 25°
2026-04-20 16:19 43.76084 -75.66937 5490 ft 211 kts 27°
2026-04-20 16:19 43.77325 -75.65890 5493 ft 207 kts 23°
2026-04-20 16:19 43.78596 -75.64934 5483 ft 209 kts 24°
2026-04-20 16:19 43.79859 -75.63925 5489 ft 210 kts 25°
2026-04-20 16:20 43.81104 -75.62909 5484 ft 211 kts 25°
2026-04-20 16:20 43.82372 -75.61889 5486 ft 211 kts 25°
2026-04-20 16:20 43.83643 -75.60868 5486 ft 211 kts 25°
2026-04-20 16:20 43.84912 -75.59843 5482 ft 211 kts 25°
2026-04-20 16:21 43.86182 -75.58823 5484 ft 211 kts 25°
2026-04-20 16:21 43.87452 -75.57802 5485 ft 211 kts 25°
2026-04-20 16:21 43.88719 -75.56782 5483 ft 211 kts 26°
2026-04-20 16:21 43.89987 -75.55759 5475 ft 211 kts 25°
2026-04-20 16:22 43.91258 -75.54733 5480 ft 211 kts 25°
2026-04-20 16:22 43.92527 -75.53710 5481 ft 211 kts 26°
2026-04-20 16:22 43.93801 -75.52681 5474 ft 212 kts 26°
2026-04-20 16:22 43.95072 -75.51657 5485 ft 211 kts 25°
2026-04-20 16:23 43.96341 -75.50628 5479 ft 211 kts 26°
2026-04-20 16:23 43.97609 -75.49603 5479 ft 211 kts 25°
2026-04-20 16:23 43.98874 -75.48583 5481 ft 206 kts 26°
2026-04-20 16:23 44.00090 -75.47595 5476 ft 199 kts 25°
2026-04-20 16:24 44.01273 -75.46639 5472 ft 195 kts 25°
2026-04-20 16:24 44.02437 -75.45697 5466 ft 193 kts 25°
2026-04-20 16:24 44.03589 -75.44764 5466 ft 191 kts 25°
2026-04-20 16:24 44.04735 -75.43836 5468 ft 191 kts 25°
2026-04-20 16:25 44.05916 -75.42882 5470 ft 201 kts 26°
2026-04-20 16:25 44.07148 -75.41882 5388 ft 209 kts 26°
2026-04-20 16:25 44.08415 -75.40851 5315 ft 212 kts 26°
2026-04-20 16:25 44.09698 -75.39808 5249 ft 215 kts 26°
2026-04-20 16:26 44.10991 -75.38756 5169 ft 216 kts 26°
2026-04-20 16:26 44.12288 -75.37702 5091 ft 216 kts 26°
2026-04-20 16:26 44.13585 -75.36648 5011 ft 216 kts 26°
2026-04-20 16:26 44.14880 -75.35591 4934 ft 216 kts 26°
2026-04-20 16:27 44.16173 -75.34537 4852 ft 215 kts 26°
2026-04-20 16:27 44.17467 -75.33485 4769 ft 215 kts 26°
2026-04-20 16:27 44.18761 -75.32431 4690 ft 216 kts 26°
2026-04-20 16:27 44.20055 -75.31375 4613 ft 216 kts 26°
2026-04-20 16:28 44.21351 -75.30317 4533 ft 216 kts 27°
2026-04-20 16:28 44.22649 -75.29256 4456 ft 216 kts 26°
2026-04-20 16:28 44.23946 -75.28198 4371 ft 216 kts 26°
2026-04-20 16:28 44.25242 -75.27139 4295 ft 216 kts 26°
2026-04-20 16:29 44.26533 -75.26084 4219 ft 215 kts 26°
2026-04-20 16:29 44.27824 -75.25028 4144 ft 215 kts 26°
2026-04-20 16:29 44.29112 -75.23971 4058 ft 215 kts 26°
2026-04-20 16:29 44.30409 -75.22912 3932 ft 216 kts 26°
2026-04-20 16:30 44.31708 -75.21846 3806 ft 217 kts 27°
2026-04-20 16:30 44.33009 -75.20777 3684 ft 217 kts 26°
2026-04-20 16:30 44.34305 -75.19716 3634 ft 215 kts 27°
2026-04-20 16:30 44.35592 -75.18660 3586 ft 213 kts 27°
2026-04-20 16:31 44.36824 -75.17645 3528 ft 199 kts 27°
2026-04-20 16:31 44.37986 -75.16691 3466 ft 190 kts 26°
2026-04-20 16:31 44.39110 -75.15768 3405 ft 185 kts 26°
2026-04-20 16:31 44.40193 -75.14878 3356 ft 182 kts 26°
2026-04-20 16:32 44.41279 -75.13988 3299 ft 180 kts 26°
2026-04-20 16:32 44.42359 -75.13099 3240 ft 180 kts 27°
2026-04-20 16:32 44.43436 -75.12211 3188 ft 180 kts 26°
2026-04-20 16:32 44.44511 -75.11326 3140 ft 178 kts 26°
2026-04-20 16:33 44.45577 -75.10448 3086 ft 178 kts 26°
2026-04-20 16:33 44.46641 -75.09572 3033 ft 177 kts 26°
2026-04-20 16:33 44.47699 -75.08699 2980 ft 177 kts 26°
2026-04-20 16:33 44.48759 -75.07823 2933 ft 177 kts 27°
2026-04-20 16:34 44.49818 -75.06951 2882 ft 176 kts 26°
2026-04-20 16:34 44.50875 -75.06076 2817 ft 177 kts 27°
2026-04-20 16:34 44.51935 -75.05200 2806 ft 176 kts 26°
2026-04-20 16:34 44.52988 -75.04333 2811 ft 176 kts 26°
2026-04-20 16:35 44.54037 -75.03464 2808 ft 175 kts 26°
2026-04-20 16:35 44.55080 -75.02600 2807 ft 173 kts 25°
2026-04-20 16:35 44.56117 -75.01745 2804 ft 173 kts 26°
2026-04-20 16:35 44.57153 -75.00886 2812 ft 173 kts 26°
2026-04-20 16:36 44.58183 -75.00032 2809 ft 172 kts 26°
2026-04-20 16:36 44.59209 -74.99182 2812 ft 171 kts 26°
2026-04-20 16:36 44.60233 -74.98333 2811 ft 171 kts 26°
2026-04-20 16:36 44.61261 -74.97482 2815 ft 172 kts 26°
2026-04-20 16:37 44.62296 -74.96623 2817 ft 173 kts 26°
2026-04-20 16:37 44.63336 -74.95761 2817 ft 175 kts 26°
2026-04-20 16:37 44.64376 -74.94897 2807 ft 161 kts 26°
2026-04-20 16:37 44.65174 -74.94217 2788 ft 114 kts 24°
2026-04-20 16:38 44.65864 -74.93654 2793 ft 116 kts 23°
2026-04-20 16:38 44.66560 -74.93080 2796 ft 117 kts 24°
2026-04-20 16:38 44.67270 -74.92497 2796 ft 120 kts 24°
2026-04-20 16:38 44.67987 -74.91897 2810 ft 120 kts 24°
2026-04-20 16:39 44.68706 -74.91298 2810 ft 120 kts 24°
2026-04-20 16:39 44.69428 -74.90700 2815 ft 121 kts 25°
2026-04-20 16:39 44.70156 -74.90092 2813 ft 122 kts 24°
2026-04-20 16:39 44.70887 -74.89485 2808 ft 123 kts 25°
2026-04-20 16:40 44.71650 -74.89055 2800 ft 117 kts 356°
2026-04-20 16:40 44.72419 -74.89296 2793 ft 112 kts 326°
2026-04-20 16:40 44.72950 -74.90021 2748 ft 107 kts 298°
2026-04-20 16:40 44.73280 -74.90986 2624 ft 112 kts 295°
2026-04-20 16:41 44.73634 -74.91979 2498 ft 114 kts 294°
2026-04-20 16:41 44.73994 -74.93006 2381 ft 120 kts 294°
2026-04-20 16:41 44.74360 -74.94048 2305 ft 115 kts 295°
2026-04-20 16:41 44.74704 -74.95031 2304 ft 109 kts 294°
2026-04-20 16:42 44.75029 -74.95963 2311 ft 106 kts 294°
2026-04-20 16:42 44.75353 -74.96886 2288 ft 102 kts 294°
2026-04-20 16:42 44.75657 -74.97760 2288 ft 97 kts 295°
2026-04-20 16:42 44.76034 -74.98531 2273 ft 99 kts 320°
2026-04-20 16:43 44.76731 -74.98695 2196 ft 112 kts 13°
2026-04-20 16:43 44.77397 -74.98077 2147 ft 114 kts 22°
2026-04-20 16:43 44.78089 -74.97528 2103 ft 113 kts 25°
2026-04-20 16:43 44.78750 -74.96968 2108 ft 111 kts 23°
2026-04-20 16:44 44.79404 -74.96416 2108 ft 110 kts 26°
2026-04-20 16:44 44.80083 -74.95841 2097 ft 113 kts 23°
2026-04-20 16:44 44.80750 -74.95293 2084 ft 110 kts 24°
2026-04-20 16:44 44.81402 -74.94732 2090 ft 109 kts 25°
2026-04-20 16:45 44.82052 -74.94190 2131 ft 108 kts 23°
2026-04-20 16:45 44.82700 -74.93658 2086 ft 108 kts 23°
2026-04-20 16:45 44.83344 -74.93109 2091 ft 108 kts 25°
2026-04-20 16:45 44.83984 -74.92556 2056 ft 108 kts 24°
2026-04-20 16:46 44.84602 -74.92035 2064 ft 103 kts 25°
2026-04-20 16:46 44.85225 -74.91511 2071 ft 103 kts 23°
2026-04-20 16:46 44.85833 -74.91000 2067 ft 103 kts 24°
2026-04-20 16:46 44.86448 -74.90482 2076 ft 104 kts 24°
2026-04-20 16:47 44.87111 -74.89918 1942 ft 116 kts 25°
2026-04-20 16:47 44.87788 -74.89346 1781 ft 106 kts 24°
2026-04-20 16:47 44.88367 -74.88854 1615 ft 90 kts 23°
2026-04-20 16:47 44.88888 -74.88419 1445 ft 86 kts 20°
2026-04-20 16:48 44.89404 -74.87984 1259 ft 86 kts 21°
2026-04-20 16:48 44.89924 -74.87537 1085 ft 89 kts 22°
2026-04-20 16:48 44.90446 -74.87113 904 ft 82 kts 12°
2026-04-20 16:48 44.90933 -74.86708 759 ft 82 kts 25°
2026-04-20 16:49 44.91400 -74.86285 631 ft 78 kts 20°
2026-04-20 16:49 44.91860 -74.85904 516 ft 79 kts 22°
2026-04-20 16:49 44.92327 -74.85499 403 ft 78 kts 20°
2026-04-20 16:49 44.92770 -74.85124 300 ft 69 kts 12°
2026-04-20 16:50 44.93159 -74.84806 212 ft 61 kts 20°
2026-04-20 16:50 44.93425 -74.84596 207 ft 33 kts 38°
2026-04-20 16:50 44.93516 -74.84498 209 ft 10 kts 222°
2026-04-20 16:50 44.93436 -74.84499 216 ft 21 kts 117°
2026-04-20 16:51 44.93385 -74.84307 211 ft 18 kts
2026-04-20 16:51 44.93406 -74.84340 208 ft 0 kts 296°